Tracking 30995 objects as of 7-Jul-2025
HD Live streaming from Space Station
objects crossing your sky now

SL-12 R/B(2)

Track SL-12 R/B(2) now!


NORAD ID: 23883
Int'l Code: 1996-034D
Perigee: 36,328.0 km
Apogee: 36,588.8 km
Inclination: 15.3 °
Period: 1,470.2 minutes
Semi major axis: 42829 km
RCS: 2.9121 m2 (large)
Launch date: May 25, 1996
Source: Commonwealth of Independent States (former USSR) (CIS)
Launch site: TYURATAM MISSILE AND SPACE COMPLEX (TTMTR)

Note: This is a ROCKET BODY
Your satellite tracking list
Your tracking list is empty




NASA's NSSDC Master Catalog

Two Line Element Set (TLE):
1 23883U 96034D   25186.77657203 -.00000186  00000-0  00000-0 0  9991
2 23883  15.2618   0.4840 0030442  95.9915  95.4895  0.97946686104141
Source of the keplerian elements: AFSPC